{"data":{"norad_id":51869,"epoch":"2026-05-25T01:25:08.685120Z","epoch_age_seconds":73944,"freshness":"FRESH","line1":"1 51869U 22022T   26145.05912830  .00000780  00000+0  67091-4 0  9994","line2":"2 51869  53.2136  26.2868 0001280  62.9859 297.1264 15.08839056234648","mean_motion":15.08839056,"eccentricity":0.000128,"inclination_deg":53.2136,"raan_deg":26.2868,"arg_perigee_deg":62.9859,"mean_anomaly_deg":297.1264,"bstar":6.7091e-5,"rev_number":23464,"period_min":95.437614387946,"perigee_km":538.86078533683,"apogee_km":540.63176345508,"semimajor_km":6917.883274396,"source":"CELESTRAK","updated_at":"2026-05-25T13:38:16.963092Z"}}